sat.trackr.live / text

‹ back to catalog

FLOCK 4H-35

NORAD 66738 · 2025-276CA

PAYLOAD ACTIVE UNKNOWN

§ Identity

Operator
Country
US
Launch date
2025-11-28
Launch site
AFWTR
Launch vehicle
Mass (kg)
RCS (m²)

Purposes: earth_obs

External: N2YO · Heavens-Above · Gunter

§ Orbital elements

Epoch: 2026-05-25T03:07:36.357024Z

Period
94.71 min
Inclination
97.4202°
Eccentricity
0.0002498
Mean motion
15.20366469 rev/d
Perigee alt
503.0 km
Apogee alt
506.5 km
Semi-major
6,882.9 km
B*
2.3067e-4
RAAN
219.2683°
Arg perigee
51.6998°
Mean anomaly
308.4461°
Rev number
2,622

§ Raw data

FLOCK 4H-351 66738U 25276CA  26145.13028191  .00004953  00000+0  23067-3 0  99962 66738  97.4202 219.2683 0002498  51.6998 308.4461 15.20366469 26228

JSON: /api/v1/satellites/66738 · /tle

For live sub-satellite position, see the globe view (requires WebGL).

§ Visibility from observer

Set your observer location to see the next 7 days of passes ≥ 10°. The values pass through the URL so the page stays shareable.

No JS? Fill the form by hand. The geolocation button needs JavaScript.